Location: Chagrin Falls Park
(41.4139°N, 81.3865°W)
Time: 08:24:50
(UTC+00:00)

STARLINK-2727 - Pass Details

Date: 06 December 2021
Orbit: 546 x 548 km, 53.1° (Epoch: 22 January)

Event Time Altitude Azimuth Distance (km) Brightness Sun altitude
Rises 23:31:45 0° 300° (WNW) 2,720 7.9 -17.4°
Reaches altitude 10° 23:34:43 10° 322° (NW) 1,826 6.6 -17.9°
Maximum altitude 23:37:22 16° 2° (N) 1,470 5.6 -18.4°
Enters shadow 23:37:47 16° 9° (N) 1,480 5.6 -18.5°
